EZY556 EGKK-EGBP

Flight info

Callsign EZY556
Flight time 0h 25m
Altitude 14000
Route IMVUR N63 VOUGA N14 HEKXA Q63 SAWPE DCT ASHUM DCT ACKEC175005 DCT ACKEC
Aircraft A20N/M-SDE2E3FGHIRWXY/LB1

Departure

Time 2026-05-08 13:01
Airport London Gatwick Airport (EGKK)

Arrival

Time 2026-05-08 13:26
Airport Cotswold Airport (EGBP)
Time Latitude Longitude Altitude Speed Heading
2026-05-08 12:29 51.16113 -0.18022 195 ft 0 kts 77°
2026-05-08 12:46 51.16110 -0.18045 208 ft 2 kts 81°
2026-05-08 12:46 51.16107 -0.18071 214 ft 2 kts 83°
2026-05-08 12:46 51.16106 -0.18097 210 ft 2 kts 88°
2026-05-08 12:47 51.16106 -0.18123 213 ft 2 kts 97°
2026-05-08 12:47 51.16110 -0.18149 211 ft 2 kts 114°
2026-05-08 12:47 51.16119 -0.18171 217 ft 2 kts 141°
2026-05-08 12:47 51.16132 -0.18184 210 ft 2 kts 163°
2026-05-08 12:48 51.16137 -0.18186 208 ft 0 kts 166°
2026-05-08 12:51 51.16136 -0.18185 208 ft 4 kts 166°
2026-05-08 12:51 51.16054 -0.18155 209 ft 15 kts 167°
2026-05-08 12:52 51.15966 -0.18124 204 ft 8 kts 168°
2026-05-08 12:52 51.15798 -0.18067 213 ft 17 kts 167°
2026-05-08 12:52 51.15700 -0.18058 214 ft 12 kts 223°
2026-05-08 12:53 51.15667 -0.18194 208 ft 15 kts 257°
2026-05-08 12:53 51.15641 -0.18372 204 ft 18 kts 256°
2026-05-08 12:53 51.15614 -0.18572 213 ft 18 kts 258°
2026-05-08 12:53 51.15586 -0.18776 209 ft 16 kts 254°
2026-05-08 12:54 51.15518 -0.18823 216 ft 12 kts 169°
2026-05-08 12:54 51.15429 -0.18789 204 ft 14 kts 167°
2026-05-08 12:54 51.15321 -0.18750 209 ft 18 kts 167°
2026-05-08 12:54 51.15214 -0.18713 204 ft 8 kts 169°
2026-05-08 12:55 51.15150 -0.18709 215 ft 11 kts 192°
2026-05-08 12:55 51.15115 -0.18828 207 ft 22 kts 254°
2026-05-08 12:55 51.15074 -0.19132 205 ft 22 kts 257°
2026-05-08 12:55 51.15052 -0.19243 212 ft 10 kts 232°
2026-05-08 12:56 51.14978 -0.19281 216 ft 13 kts 209°
2026-05-08 12:56 51.14937 -0.19483 209 ft 27 kts 256°
2026-05-08 12:56 51.14893 -0.19796 210 ft 32 kts 258°
2026-05-08 12:56 51.14844 -0.20150 204 ft 30 kts 257°
2026-05-08 12:57 51.14798 -0.20471 217 ft 28 kts 258°
2026-05-08 12:57 51.14769 -0.20693 214 ft 15 kts 258°
2026-05-08 12:57 51.14744 -0.20873 207 ft 19 kts 256°
2026-05-08 12:57 51.14716 -0.21077 205 ft 18 kts 258°
2026-05-08 12:58 51.14701 -0.21193 205 ft 1 kts 258°
2026-05-08 12:58 51.14701 -0.21194 205 ft 1 kts 259°
2026-05-08 12:58 51.14676 -0.21311 207 ft 14 kts 231°
2026-05-08 12:58 51.14617 -0.21331 208 ft 0 kts 167°
2026-05-08 12:59 51.14617 -0.21330 208 ft 0 kts 167°
2026-05-08 13:00 51.14547 -0.21275 212 ft 24 kts 134°
2026-05-08 13:00 51.14547 -0.20979 209 ft 47 kts 77°
2026-05-08 13:00 51.14680 -0.19999 207 ft 129 kts 77°
2026-05-08 13:00 51.14910 -0.18297 371 ft 179 kts 77°
2026-05-08 13:01 51.15215 -0.16320 1343 ft 179 kts 77°
2026-05-08 13:01 51.15527 -0.14338 2336 ft 193 kts 77°
2026-05-08 13:01 51.15856 -0.12068 2760 ft 231 kts 78°
2026-05-08 13:01 51.16193 -0.09575 3303 ft 228 kts 79°
2026-05-08 13:02 51.16677 -0.07221 3321 ft 228 kts 59°
2026-05-08 13:02 51.17836 -0.05548 3174 ft 229 kts 26°
2026-05-08 13:02 51.19400 -0.05150 3001 ft 233 kts 353°
2026-05-08 13:02 51.20998 -0.05740 2986 ft 238 kts 338°
2026-05-08 13:03 51.22300 -0.07326 3049 ft 240 kts 305°
2026-05-08 13:03 51.22879 -0.09769 3381 ft 236 kts 271°
2026-05-08 13:03 51.22691 -0.12367 3915 ft 238 kts 256°
2026-05-08 13:03 51.22326 -0.14927 4452 ft 236 kts 254°
2026-05-08 13:04 51.21945 -0.17544 5029 ft 244 kts 255°
2026-05-08 13:04 51.21589 -0.20193 5578 ft 251 kts 256°
2026-05-08 13:04 51.21354 -0.22058 5998 ft 264 kts 256°
2026-05-08 13:04 51.21012 -0.24928 6592 ft 261 kts 257°
2026-05-08 13:05 51.20679 -0.27800 7224 ft 266 kts 257°
2026-05-08 13:05 51.20345 -0.30721 7853 ft 269 kts 259°
2026-05-08 13:05 51.20415 -0.33703 8500 ft 275 kts 284°
2026-05-08 13:05 51.21284 -0.36439 9161 ft 282 kts 302°
2026-05-08 13:06 51.22430 -0.38992 9823 ft 284 kts 303°
2026-05-08 13:06 51.23527 -0.41633 10454 ft 286 kts 299°
2026-05-08 13:06 51.24513 -0.44404 11076 ft 288 kts 295°
2026-05-08 13:06 51.25414 -0.47263 11713 ft 290 kts 293°
2026-05-08 13:07 51.26275 -0.50190 12350 ft 292 kts 292°
2026-05-08 13:07 51.27123 -0.53158 13005 ft 295 kts 292°
2026-05-08 13:07 51.27973 -0.56156 13673 ft 299 kts 292°
2026-05-08 13:07 51.28837 -0.59204 13988 ft 301 kts 292°
2026-05-08 13:08 51.29703 -0.62250 14073 ft 301 kts 292°
2026-05-08 13:08 51.30570 -0.65298 14076 ft 302 kts 292°
2026-05-08 13:08 51.31440 -0.68356 14074 ft 301 kts 292°
2026-05-08 13:08 51.32306 -0.71405 14079 ft 301 kts 292°
2026-05-08 13:09 51.33173 -0.74463 14076 ft 304 kts 292°
2026-05-08 13:09 51.34063 -0.77608 14079 ft 324 kts 292°
2026-05-08 13:09 51.35020 -0.81013 14078 ft 342 kts 292°
2026-05-08 13:09 51.35999 -0.84480 14076 ft 341 kts 292°
2026-05-08 13:10 51.36975 -0.87935 14076 ft 341 kts 292°
2026-05-08 13:10 51.37949 -0.91384 14076 ft 341 kts 292°
2026-05-08 13:10 51.38926 -0.94851 14075 ft 341 kts 292°
2026-05-08 13:10 51.39901 -0.98325 14075 ft 341 kts 292°
2026-05-08 13:11 51.40875 -1.01794 14075 ft 341 kts 292°
2026-05-08 13:11 51.41846 -1.05261 14075 ft 341 kts 292°
2026-05-08 13:11 51.42815 -1.08729 14027 ft 340 kts 292°
2026-05-08 13:11 51.43765 -1.12128 13666 ft 327 kts 292°
2026-05-08 13:12 51.44677 -1.15395 13234 ft 317 kts 291°
2026-05-08 13:12 51.45564 -1.18584 12696 ft 310 kts 291°
2026-05-08 13:12 51.46433 -1.21708 12173 ft 303 kts 291°
2026-05-08 13:12 51.47272 -1.24729 11665 ft 297 kts 291°
2026-05-08 13:13 51.48105 -1.27735 11151 ft 292 kts 291°
2026-05-08 13:13 51.48920 -1.30687 10664 ft 287 kts 291°
2026-05-08 13:13 51.49734 -1.33635 10164 ft 283 kts 291°
2026-05-08 13:13 51.50524 -1.36497 9655 ft 279 kts 291°
2026-05-08 13:14 51.51294 -1.39287 9189 ft 273 kts 291°
2026-05-08 13:14 51.52042 -1.41994 8986 ft 258 kts 291°
2026-05-08 13:14 51.52758 -1.44588 8673 ft 249 kts 291°
2026-05-08 13:14 51.52993 -1.45442 8569 ft 247 kts 291°
2026-05-08 13:15 51.53193 -1.46169 8472 ft 247 kts 290°
2026-05-08 13:15 51.53729 -1.48788 8173 ft 246 kts 282°
2026-05-08 13:15 51.54157 -1.51434 7871 ft 243 kts 281°
2026-05-08 13:15 51.54566 -1.54028 7578 ft 237 kts 281°
2026-05-08 13:16 51.54970 -1.56586 7261 ft 235 kts 281°
2026-05-08 13:16 51.55373 -1.59119 6963 ft 233 kts 281°
2026-05-08 13:16 51.55774 -1.61628 6662 ft 230 kts 281°
2026-05-08 13:16 51.56171 -1.64105 6362 ft 228 kts 281°
2026-05-08 13:17 51.56561 -1.66530 6075 ft 224 kts 281°
2026-05-08 13:17 51.56946 -1.68920 5805 ft 219 kts 281°
2026-05-08 13:17 51.57323 -1.71264 5503 ft 215 kts 281°
2026-05-08 13:17 51.57697 -1.73610 5198 ft 218 kts 281°
2026-05-08 13:18 51.58073 -1.75966 4897 ft 216 kts 281°
2026-05-08 13:18 51.58445 -1.78296 4585 ft 214 kts 281°
2026-05-08 13:18 51.58816 -1.80628 4275 ft 217 kts 281°
2026-05-08 13:18 51.59187 -1.82957 4037 ft 212 kts 281°
2026-05-08 13:19 51.59554 -1.85268 4007 ft 214 kts 281°
2026-05-08 13:19 51.59923 -1.87597 4006 ft 214 kts 281°
2026-05-08 13:19 51.60266 -1.89916 4008 ft 212 kts 276°
2026-05-08 13:19 51.60481 -1.92279 4008 ft 214 kts 275°
2026-05-08 13:20 51.60703 -1.94634 4008 ft 212 kts 275°
2026-05-08 13:20 51.60927 -1.96983 4013 ft 214 kts 275°
2026-05-08 13:20 51.61154 -1.99351 4011 ft 213 kts 275°
2026-05-08 13:20 51.61378 -2.01697 4009 ft 212 kts 275°
2026-05-08 13:21 51.61599 -2.04048 4007 ft 211 kts 276°
2026-05-08 13:21 51.61819 -2.06379 3957 ft 209 kts 275°
2026-05-08 13:21 51.62036 -2.08677 3648 ft 208 kts 275°
2026-05-08 13:21 51.62334 -2.10966 3114 ft 220 kts 291°
2026-05-08 13:22 51.63299 -2.12796 2716 ft 215 kts 327°
2026-05-08 13:22 51.64707 -2.13443 2203 ft 211 kts
2026-05-08 13:22 51.65980 -2.12661 1983 ft 186 kts 47°
2026-05-08 13:22 51.66363 -2.10860 1353 ft 174 kts 94°
2026-05-08 13:23 51.66454 -2.08984 880 ft 157 kts 99°
2026-05-08 13:23 51.66621 -2.07354 520 ft 141 kts 83°
2026-05-08 13:23 51.66791 -2.05915 461 ft 121 kts 85°
2026-05-08 13:23 51.66924 -2.04343 821 ft 144 kts 88°
2026-05-08 13:24 51.66981 -2.02770 1669 ft 147 kts 116°
2026-05-08 13:24 51.66176 -2.01848 1899 ft 159 kts 181°
2026-05-08 13:24 51.65239 -2.02756 1975 ft 167 kts 243°
2026-05-08 13:24 51.65003 -2.04641 1604 ft 177 kts 263°
2026-05-08 13:25 51.64925 -2.06601 1413 ft 173 kts 263°
2026-05-08 13:25 51.64833 -2.08485 1352 ft 164 kts 261°
2026-05-08 13:25 51.65110 -2.10107 1471 ft 150 kts 317°
2026-05-08 13:25 51.66062 -2.10621 1156 ft 147 kts 21°
2026-05-08 13:26 51.66504 -2.09463 910 ft 126 kts 96°
2026-05-08 13:26 51.66548 -2.08061 649 ft 124 kts 82°
2026-05-08 13:26 51.66696 -2.06737 437 ft 117 kts 83°
2026-05-08 13:26 51.66801 -2.05755 426 ft 45 kts 82°
2026-05-08 13:27 51.66848 -2.05313 418 ft 27 kts 80°
2026-05-08 13:27 51.66878 -2.05055 415 ft 25 kts 81°
2026-05-08 13:27 51.66917 -2.04890 415 ft 7 kts 17°
2026-05-08 13:27 51.66945 -2.04878 417 ft 0 kts 24°
2026-05-08 13:28 51.66961 -2.04844 419 ft 11 kts 54°
2026-05-08 13:28 51.67006 -2.04646 414 ft 26 kts 77°
2026-05-08 13:28 51.67018 -2.04348 417 ft 21 kts 124°
2026-05-08 13:28 51.66944 -2.04392 415 ft 18 kts 256°
2026-05-08 13:29 51.66877 -2.04962 417 ft 66 kts 259°
2026-05-08 13:29 51.66796 -2.05667 426 ft 60 kts 259°
2026-05-08 13:29 51.66733 -2.06283 434 ft 52 kts 261°
2026-05-08 13:29 51.66682 -2.06743 438 ft 24 kts 259°
2026-05-08 13:30 51.66682 -2.06842 439 ft 4 kts 26°
2026-05-08 13:30 51.66684 -2.06825 441 ft 0 kts 82°
2026-05-08 13:30 51.66721 -2.06472 427 ft 77 kts 82°
2026-05-08 13:30 51.66846 -2.05192 456 ft 148 kts 82°
2026-05-08 13:31 51.66999 -2.03655 1520 ft 129 kts 86°
2026-05-08 13:31 51.67481 -2.02122 1771 ft 187 kts 34°
2026-05-08 13:31 51.68915 -2.02107 1807 ft 234 kts 329°
2026-05-08 13:31 51.69844 -2.04309 1870 ft 255 kts 281°
2026-05-08 13:32 51.70101 -2.07149 2123 ft 257 kts 272°
2026-05-08 13:32 51.69697 -2.09836 2496 ft 245 kts 235°
2026-05-08 13:32 51.68500 -2.11752 2643 ft 248 kts 208°
2026-05-08 13:32 51.66855 -2.12506 2885 ft 246 kts 180°
2026-05-08 13:33 51.65159 -2.12702 3223 ft 246 kts 197°
2026-05-08 13:33 51.63626 -2.13913 3551 ft 246 kts 208°
2026-05-08 13:33 51.62133 -2.15253 3885 ft 245 kts 208°
2026-05-08 13:33 51.60662 -2.16562 4222 ft 244 kts 208°
2026-05-08 13:34 51.59161 -2.17887 4545 ft 243 kts 208°
2026-05-08 13:34 51.57678 -2.19186 4881 ft 242 kts 208°